x

Neah Bay, - 6nm North Of Cape Flattery, Wa (traffic Separation Lighted Buoy) (46087) Wave Buoy

9:50am - Sat 25th Mar 2017 All times are PDT. -7 hours from GMT.

  • Sig Wave height 7.9ft
  • Swell Direction
  • Peak Period 10s
  • Average Period 8s
  • Wind
    11mph, 13mph gusts
  • Sea Temp 49°f
  • 空気 Temp 46°f
  • Sea Pressure 1018mb
  • Neah Bay, - 6nm North Of Cape Flattery, Wa     (traffic Separation Lighted Buoy)
  • Neah Bay, - 6nm North Of Cape Flattery, Wa     (traffic Separation Lighted Buoy)

More Historic Weather Station data

Upgrade to MSW Pro to gain access to the past 30 days of data for over 8000 Wavebouys and Weather Stations around the globe.

Join Pro

Comparision Forecast

View Surf forecast
   
Sat 03/25 9:50am 8ft 10s 8s 11 13 mph 1018mb 49f 46f
9:20am 7ft 10s 8s 11 16 mph 1018.1mb 49f 45f
8:50am 8ft 10s 8s 11 16 mph 1017.7mb 49f 45f
8:20am 8.5ft 10s 7s 9 13 mph 1017.2mb 49f 45f
7:50am 7.5ft 10s 7s 18 22 mph 1017.1mb 49f 44f
7:20am 6.5ft 10s 8s 25 29 mph 1016.8mb 49f 43f
6:50am 6.5ft 10s 8s 7 11 mph 1017mb 49f 45f
6:20am 6ft 11s 7s 11 16 mph 1016.8mb 49f 47f
5:50am 6.5ft 10s 7s 7 11 mph 1016.6mb 49f 46f
5:20am 7ft 10s 7s 11 13 mph 1016.3mb 49f 45f
4:50am 6.5ft 11s 7s 13 25 mph 1016.1mb 49f 47f
4:20am 6.5ft 11s 7s 16 18 mph 1016.1mb 49f 47f
3:50am 7ft 11s 7s 18 20 mph 1015.8mb 49f 47f
3:20am 6ft 11s 6s 18 22 mph 1015.5mb 49f 47f
2:50am 6ft 11s 6s 20 25 mph 1015.4mb 49f 47f
2:20am 6ft 11s 6s 20 25 mph 1015mb 49f 47f
1:50am 6ft 10s 6s 22 29 mph 1014.7mb 49f 48f
1:20am 6.5ft 10s 7s 25 29 mph 1014.1mb 49f 47f
12:50am 7ft 11s 7s 20 25 mph 1013.7mb 49f 47f
12:20am 7ft 11s 7s 22 27 mph 1013.1mb 49f 46f
Fri 03/24 11:50pm 7ft 11s 6s 20 25 mph 1012.6mb 49f 45f
11:20pm 8ft 11s 6s 18 20 mph 1012.2mb 49f 46f
10:50pm 8ft 11s 6s 22 29 mph 1011.8mb 49f 47f
10:20pm 8ft 11s 7s 22 27 mph 1011.3mb 49f 49f
9:50pm 8.5ft 11s 7s 20 25 mph 1011mb 49f 48f
9:20pm 10ft 11s 7s 22 27 mph 1010.6mb 49f 48f
8:50pm 8.5ft 11s 7s 22 29 mph 1010.2mb 49f 49f
8:20pm 8ft 11s 7s 25 29 mph 1009.7mb 49f 48f
7:50pm 8ft 11s 7s 25 29 mph 1009.5mb 49f 48f
7:20pm 8ft 11s 7s 18 29 mph 1009.2mb 49f 47f
6:50pm 8ft 11s 8s 22 27 mph 1009.1mb 49f 46f
6:20pm 7.5ft 11s 7s 20 25 mph 1008.8mb 50f 48f
5:50pm 8ft 10s 8s 20 25 mph 1008.7mb 50f 48f
5:20pm 8ft 11s 8s 20 25 mph 1008.6mb 50f 48f
4:50pm 7ft 11s 7s 20 25 mph 1008.4mb 50f 48f
4:20pm 8ft 11s 8s 20 25 mph 1008.2mb 50f 49f
3:50pm 7.5ft 11s 8s 18 25 mph 1007.8mb 50f 49f
3:20pm 7ft 11s 8s 22 27 mph 1007.6mb 50f 49f
2:50pm 7ft 11s 8s 18 20 mph 1007.5mb 50f 48f
2:20pm 7ft 12s 8s 16 18 mph 1007.2mb 50f 49f
1:50pm 7ft 11s 7s 18 20 mph 1007.1mb 50f 49f
1:20pm 7ft 12s 7s 18 22 mph 1006.9mb 49f 48f
12:50pm 5.5ft 11s 7s 16 18 mph 1006.9mb 49f 48f
12:20pm 5.5ft 10s 6s 13 16 mph 1006.7mb 49f 48f
11:50am 5ft 11s 7s 16 18 mph 1006.6mb 49f 48f
11:20am 5ft 13s 7s 18 25 mph 1006.1mb 49f 49f
10:50am 5ft 11s 7s 16 20 mph 1005.7mb 49f 49f
10:20am 5ft 10s 7s 16 20 mph 1005.7mb 49f 49f
9:50am 5ft 13s 7s 18 20 mph 1005.5mb 49f 48f
9:20am 5ft 10s 8s 16 22 mph 1005.4mb 49f 48f
8:50am 5ft 10s 7s 13 18 mph 1005.4mb 49f 47f
8:20am 5ft 11s 7s 16 22 mph 1005.5mb 49f 47f
7:50am 5ft 11s 7s 18 22 mph 1005.2mb 49f 48f
7:20am 5ft 11s 7s 13 16 mph 1005.5mb 49f 49f
6:50am 5ft 10s 7s 13 16 mph 1005.8mb 49f 49f
6:20am 5ft 11s 7s 13
mph
1005.7mb 49f 49f
5:50am 5.5ft 10s 7s 13 16 mph 1005.5mb 49f 49f
5:20am 5ft 11s 7s 13 16 mph 1005.5mb 49f 49f
4:50am 5ft 11s 7s 13 18 mph 1005.7mb 49f 49f
4:20am 6ft 11s 7s 16 20 mph 1005.9mb 49f 49f
3:50am 5.5ft 11s 7s 13 18 mph 1006.1mb 49f 50f
3:20am 6.5ft 10s 7s 18 22 mph 1006mb 49f 50f
2:50am 6ft 11s 7s 16 20 mph 1006.3mb 49f 50f
2:20am 6ft 11s 7s 18 20 mph 1006.2mb 49f 50f
1:50am 6ft 11s 7s 18 25 mph 1006.1mb 49f 50f
1:20am 6ft 10s 7s 18 20 mph 1006.2mb 49f 49f
12:50am 6ft 10s 7s 16 20 mph 1006.3mb 49f 48f
12:20am 6ft 10s 8s 16 20 mph 1006.5mb 49f 49f
Thu 03/23 11:50pm 6ft 11s 8s 16 18 mph 1006.6mb 49f 48f
11:20pm 5.5ft 10s 8s 16 22 mph 1006.8mb 49f 48f
10:50pm 5ft 10s 7s 16 18 mph 1007mb 49f 48f
10:20pm 5.5ft 9s 7s 18 20 mph 1007.3mb 49f 47f
9:50pm 5ft 9s 7s 20 22 mph 1007.3mb 49f 47f
9:20pm 5ft 9s 7s 20 25 mph 1007.3mb 49f 46f
8:50pm 5.5ft 8s 7s 18 22 mph 1007.8mb 49f 46f
8:20pm 6ft 9s 7s 16 20 mph 1008.3mb 49f 46f
7:50pm 5.5ft 10s 7s 16 20 mph 1008.7mb 49f 46f
7:20pm 5.5ft 8s 7s 16 20 mph 1009.2mb 49f 46f
6:50pm 6ft 8s 7s 18 22 mph 1009.2mb 49f 46f
6:20pm 6ft 8s 6s 20 22 mph 1009.8mb 49f 46f
5:50pm 6ft 8s 6s 20 22 mph 1010.1mb 49f 46f
5:20pm 5.5ft 8s 6s 20 25 mph 1010.5mb 49f 46f
4:50pm 5ft 8s 6s 22 25 mph 1010.5mb 49f 47f
4:20pm 4.5ft 8s 6s 18 20 mph 1011.4mb 49f 47f
3:50pm 5ft 7s 6s 16 18 mph 1011.8mb 49f 47f
3:20pm 5ft 7s 6s 16 20 mph 1012.2mb 49f 47f
2:50pm 5ft 12s 6s 18 20 mph 1012.6mb 49f 46f
2:20pm 5ft 7s 6s 16 20 mph 1012.9mb 49f 47f
1:50pm 5ft 12s 6s 18 22 mph 1013mb 49f 47f
1:20pm 4.5ft 12s 6s 20 22 mph 1013.3mb 49f 48f
12:50pm 5ft 11s 6s 20 25 mph 1013.8mb 49f 47f
12:20pm 5ft 12s 6s 20 25 mph 1014.2mb 49f 47f
11:50am 5ft 7s 6s 20 25 mph 1014.4mb 49f 47f
11:20am 5ft 12s 6s 20 22 mph 1014.6mb 49f 47f
10:50am 5ft 11s 6s 20 22 mph 1014.7mb 49f 46f
10:20am 5.5ft 11s 7s 20 25 mph 1014.8mb 49f 46f
9:50am 5.5ft 11s 6s 20 25 mph 1014.6mb 49f 46f
9:20am 6ft 12s 6s 20 25 mph 1014.8mb 49f 46f
8:50am 5.5ft 12s 6s 18 20 mph 1015mb 49f 46f
8:20am 5.5ft 7s 6s 20 25 mph 1015.1mb 49f 46f
7:50am 5ft 9s 6s 16 20 mph 1015.1mb 49f 46f
7:20am 5.5ft 12s 7s 16 18 mph 1015.1mb 49f 46f
6:50am 5ft 14s 7s 18 20 mph 1015mb 49f 47f
6:20am 5ft 7s 7s 11 13 mph 1015.4mb 49f 46f
5:50am 5ft 10s 7s 11 16 mph 1015.4mb 49f 46f
5:20am 5ft 10s 7s 13 16 mph 1015.4mb 49f 46f
4:50am 5ft 7s 7s 11 13 mph 1015.5mb 49f 46f
4:20am 5.5ft 6s 7s 13 16 mph 1015.5mb 49f 47f
3:50am 5ft 7s 6s 13 18 mph 1015.6mb 49f 47f
3:20am 5.5ft 10s 6s 16 20 mph 1015.6mb 49f 47f
2:50am 6ft 7s 6s 16 18 mph 1015.7mb 49f 46f
2:20am 5.5ft 13s 6s 20 25 mph 1015.8mb 49f 45f
1:50am 5.5ft 7s 6s 27 34 mph 1015.6mb 49f 45f
1:20am 6ft 9s 6s 11 16 mph 1015.6mb 50f 45f
12:50am 5.5ft 12s 6s 22 29 mph 1015.7mb 49f 44f
12:20am 6.5ft 12s  -  20 25 mph 1015.5mb 49f 48f
Wed 03/22 11:50pm 6ft 12s 6s 20 27 mph 1015.4mb 49f 47f
11:20pm 7ft 12s 6s 20 25 mph 1015mb 49f 48f
10:50pm 7ft 10s 6s 20 27 mph 1014.9mb 49f 47f
10:20pm 7ft 13s 6s 20 25 mph 1014.6mb 49f 48f
9:50pm 7ft 13s 7s 22 29 mph 1014.4mb 49f 48f
9:20pm 6.5ft 13s 6s 22 27 mph 1014.2mb 49f 48f
8:50pm 6.5ft 13s 6s 20 25 mph 1014mb 49f 48f
8:20pm 6.5ft 11s 6s 25 29 mph 1013.6mb 50f 48f
7:50pm 6ft 13s 6s 22 27 mph 1013.5mb 50f 48f
7:20pm 5ft 11s 6s 22 29 mph 1013.3mb 50f 47f
6:50pm 6ft 13s 5s 20 25 mph 1013.2mb 50f 48f
6:20pm 6ft 13s 5s 20 25 mph 1013.1mb 50f 48f
5:50pm 5.5ft 11s 6s 22 25 mph 1012.9mb 50f 48f
5:20pm 5ft 13s 6s 22 25 mph 1012.6mb 50f 48f
4:50pm 4.5ft 13s 5s 18 22 mph 1012.1mb 50f 47f
4:20pm 4.5ft 13s 5s 25 27 mph 1011.2mb 50f 47f
3:50pm 4.5ft 13s 6s 22 27 mph 1010.3mb 50f 47f
3:20pm 4.5ft 14s 6s 25 29 mph 1009.4mb 50f 46f
2:50pm 4.5ft 14s 6s 20 25 mph 1008.8mb 50f 47f
2:20pm 5ft 13s 6s 16 18 mph 1008.4mb 49f 47f
1:50pm 4.5ft 13s 5s 16 18 mph 1008.1mb 49f 47f
1:20pm 5ft 14s 6s 25 29 mph 1007.6mb 49f 47f
12:50pm 4.5ft 14s 5s 20 25 mph 1007.3mb 49f 47f
12:20pm 4.5ft 14s 5s 18 25 mph 1007.1mb 49f 48f
11:50am 4.5ft 14s 6s 22 27 mph 1006.7mb 49f 49f
11:20am 4.5ft 14s 6s 18 22 mph 1006.5mb 49f 49f
10:50am 4.5ft 14s 6s 16 20 mph 1006.4mb 49f 49f
10:20am 4.5ft 14s 5s 18 22 mph 1006.1mb 49f 49f
9:50am 4.5ft 14s 5s 20 27 mph 1005.6mb 49f 49f
9:20am 5ft 14s 5s 22 29 mph 1005mb 49f 50f
8:50am 5ft 14s 5s 20 27 mph 1004.9mb 49f 50f
8:20am 5ft 5s 5s 22 29 mph 1004.6mb 49f 50f
7:50am 4.5ft 15s 5s 27 34 mph 1003.9mb 49f 49f
7:20am 4ft 14s 5s 29 36 mph 1003.3mb 49f 49f
6:50am 4ft 14s 5s 25 29 mph 1003mb 49f 49f
6:20am 3.5ft 14s 5s 20 25 mph 1003mb 49f 49f
5:50am 4ft 14s 7s 29 34 mph 1002.2mb 49f 50f
5:20am 3.5ft 14s 7s 20 25 mph 1001.8mb 49f 48f
4:50am 3.5ft 14s 7s 16 20 mph 1002.4mb 49f 48f
4:20am 3.5ft 14s 7s 11 13 mph 1002.5mb 49f 48f
3:50am 4ft 14s 6s 11 16 mph 1002.8mb 49f 48f
3:20am 4.5ft 14s 7s 13 18 mph 1002.8mb 49f 48f
2:50am 4ft 14s 7s 11 16 mph 1003.1mb 48f 48f
2:20am 4.5ft 14s 7s 11 13 mph 1003.4mb 48f 48f
1:50am 4ft 14s 7s 13 16 mph 1003.7mb 48f 48f
1:20am 3.5ft 15s 7s 16 20 mph 1003.7mb 48f 48f
12:50am 3.5ft 15s 7s 13 18 mph 1004mb 48f 48f
12:20am 3ft 15s 7s 16 18 mph 1003.9mb 48f 48f
Tue 03/21 11:50pm 3.5ft 15s 8s 16 20 mph 1003.8mb 48f 48f
11:20pm 3.5ft 15s 7s 13 18 mph 1003.6mb 48f 48f
10:50pm 3.5ft 15s 7s 13 18 mph 1003.4mb 48f 48f
10:20pm 3.5ft 15s 7s 16 18 mph 1003.5mb 48f 48f
9:50pm 4ft 15s 8s 13 18 mph 1003.9mb 48f 47f
9:20pm 4ft 15s 7s 11 16 mph 1004mb 48f 47f
8:50pm 4ft 15s 7s 11 13 mph 1004.3mb 48f 48f
8:20pm 4ft 15s 6s 11 13 mph 1004.7mb 48f 48f
7:50pm 4.5ft 15s 7s 13 16 mph 1004.6mb 48f 48f
7:20pm 4.5ft 15s 7s 9 11 mph 1004.5mb 47f 48f
6:50pm 4.5ft 15s 7s 9 11 mph 1004.5mb 47f 47f
6:20pm 4.5ft 15s 6s 9 13 mph 1004.6mb 47f 47f
5:50pm 4.5ft 15s 6s 11 13 mph 1004.5mb 47f 47f